Miscellaneous Local Product
Issued by NWS North Platte, NE

Home | Current Version | Previous Version | Text Only | Print | Product List | Glossary On
Versions: 1 2 3 4 5 6 7 8 9 10 11 12 13 14 15 16 17 18 19 20 21 22 23 24 25 26 27 28 29 30 31 32 33 34 35 36 37 38 39 40 41 42 43 44 45 46 47 48 49 50
291
AXUS43 KLBF 210610
MISLBF


WESTERN AND NORTH CENTRAL NEBRASKA HOURLY WEATHER ROUNDUP
NATIONAL WEATHER SERVICE NORTH PLATTE NE
1200 AM CST SAT JAN 21 2017

NOTE: "FAIR" INDICATES FEW OR NO CLOUDS BELOW 12,000 FEET WITH NO
SIGNIFICANT WEATHER AND/OR OBSTRUCTIONS TO VISIBILITY.

NOTE: STATIONS NOT REPORTING VARIABLES SUCH AS SKY/WEATHER OR
PRESSURE ARE PROVIDED BY RAWS AND APRS NETWORKS AND ARE NOT UNDER
NATIONAL WEATHER SERVICE QUALITY CONTROL.

...OBSERVATIONS IN AND NEAR THE EASTERN PANHANDLE OF NEBRASKA...

CITY           SKY/WX    TMP DP  RH WIND       PRES   REMARKS
PINE RIDGE     CLOUDY    32  32 100 SW5       29.37R WCI  27
CHADRON        CLOUDY    34  32  92 SW7       29.39R WCI  28
ALLIANCE       CLEAR     30  29  96 W5        29.39R WCI  25
SIDNEY         PTCLDY    30  26  85 W9        29.42R WCI  22
CRESCENT LAKE    N/A     33  33 100 W6          N/A  WCI  27
$$

...OBSERVATIONS IN NORTHERN NEBRASKA AND FAR SOUTHERN SOUTH DAKOTA...

CITY           SKY/WX    TMP DP  RH WIND       PRES   REMARKS
WINNER         CLOUDY    35  30  82 W3        29.34F
VALENTINE      CLOUDY    34  29  82 SW8       29.35S WCI  27
THEDFORD       CLOUDY    37  35  94 W10       29.39S WCI  29
AINSWORTH      CLOUDY    34  32  90 W7        29.35F WCI  28
O`NEILL        CLOUDY    38  38  99 SW8       29.36S FOG     WCI  32
ORD            PTCLDY    36  34  92 SW8       29.36F WCI  30
BROKEN BOW     CLOUDY    35  33  92 W3        29.37S
VALENTINE NWR    N/A     34  30  85 SW6         N/A  WCI  29
BUTTE            N/A     33  31  93 SW3         N/A
HALSEY           N/A     34  31  90 W3          N/A
SARGENT          N/A     34  25  69 W3          N/A
CHAMBERS         N/A     37  36  98 CALM        N/A
EWING            N/A     38  37  97 CALM        N/A
$$

...OBSERVATIONS IN SOUTHWEST NEBRASKA AND FAR NORTHEAST COLORADO...

CITY           SKY/WX    TMP DP  RH WIND       PRES   REMARKS
WRAY           FAIR      32  32 100 W6        29.46R WCI  26
HOLYOKE        FAIR      34  32  93 NW5       29.43S WCI  30
IMPERIAL       PTCLDY    35  32  88 N9        29.42F WCI  28
OGALLALA       CLOUDY    37  35  93 CALM      29.41S
NORTH PLATTE   CLOUDY    32  30  92 NW5       29.41S WCI  27
MCCOOK         MOCLDY    35  33  92 NW8       29.43R WCI  29
LEXINGTON      CLOUDY    34  32  93 NW5       29.40S WCI  30
STAPLETON        N/A     33  30  90 CALM        N/A
GOTHENBURG       N/A     35  32  88 W3          N/A
CALLAWAY         N/A     34  30  86 NW7         N/A  WCI  28
$$

...OBSERVATIONS IN CENTRAL LINCOLN COUNTY AREA...

CITY           SKY/WX    TMP DP  RH WIND       PRES   REMARKS
N.P. AIRPORT   CLOUDY    32  30  92 NW5       29.41S WCI  27
N.P. DOWNTOWN    N/A     34  31  90 CALM        N/A
N.P. SOUTHEAST   N/A     34  31  90 CALM        N/A
N.P. HILLCREST   N/A     34  32  94 NW3         N/A
$$

...SOME OBSERVATIONS FROM AROUND THE REGION...

CITY           SKY/WX    TMP DP  RH WIND       PRES   REMARKS
LARAMIE        CLOUDY    12   7  80 S7        29.40S WCI   1
CHEYENNE       CLEAR     26  15  63 W10       29.41S WCI  16
DENVER         PTCLDY    28  24  85 S12       29.41S WCI  18
AKRON          CLEAR     27  22  81 SW8       29.44S WCI  19
SCOTTSBLUFF    CLEAR     29  25  85 NW3       29.41S
RAPID CITY     LGT RAIN  34  32  92 NW17      29.35S WCI  23
BISMARCK       CLOUDY    32  30  92 W6        29.33F FOG     WCI  26
PIERRE         CLOUDY    24  22  91 W10       29.34R FOG     WCI  14
SIOUX FALLS    LGT RAIN  37  37 100 SE9       29.40F FOG     WCI  30
OMAHA          CLOUDY    40  37  89 CALM      29.40F FOG
GRAND ISLAND   CLOUDY    37  37 100 W9        29.40R WCI  30
KANSAS CITY    CLEAR     39  37  92 S7        29.43F WCI  34
WICHITA        CLEAR     37  36  96 SW9       29.49R WCI  30
OKLAHOMA CITY  PTCLDY    54  32  43 SW14      29.56R
DALLAS         PTCLDY    57  48  72 S10       29.63S
AMARILLO       CLOUDY    40  29  64 SW9       29.58S WCI  34
DODGE CITY     CLEAR     32  30  92 W8        29.49S WCI  25
HAYS           PTCLDY    38  35  89 W12       29.46S WCI  30
GOODLAND       CLEAR     32  30  92 W10       29.46S WCI  24
$$




USA.gov is the U.S. government's official web portal to all federal, state and local government web resources and services.